This is the latest recevied weather packets stored in our database for station/object F6BIJ-13. If no packets are shown the sender has not sent any weather packets the latest 10 day(s).
| Time | Temp. | Humidity | Pressure | Rain* | Wind** | Luminosity | Snow |
|---|---|---|---|---|---|---|---|
| 1777417597 | 12.78° C | 97% | 1016.6 hPa | 0 mm | - | - | - |
| 1777417237 | 12.78° C | 97% | 1016.4 hPa | 0 mm | - | - | - |
| 1777416877 | 12.78° C | 97% | 1016.4 hPa | 0 mm | - | - | - |
| 1777416518 | 12.78° C | 97% | 1016.4 hPa | 0 mm | - | - | - |
| 1777416157 | 12.22° C | 97% | 1016.4 hPa | 0 mm | - | - | - |
| 1777415797 | 13.33° C | 97% | 1016.4 hPa | 0 mm | - | - | - |
| 1777415437 | 12.78° C | 97% | 1016.6 hPa | 0 mm | - | - | - |
| 1777415077 | 12.78° C | 97% | 1016.5 hPa | 0 mm | - | - | - |
| 1777414717 | 12.78° C | 97% | 1016.6 hPa | 0 mm | - | - | - |
| 1777414357 | 13.33° C | 97% | 1016.6 hPa | 0 mm | - | - | - |
| 1777413997 | 12.78° C | 97% | 1016.5 hPa | 0 mm | - | - | - |
| 1777413637 | 12.78° C | 97% | 1016.6 hPa | 0 mm | - | - | - |
| 1777413277 | 12.78° C | 97% | 1016.6 hPa | 0 mm | - | - | - |
| 1777412918 | 12.78° C | 97% | 1016.6 hPa | 0 mm | - | - | - |
| 1777412557 | 12.78° C | 97% | 1016.6 hPa | 0 mm | - | - | - |
| 1777412197 | 12.78° C | 97% | 1016.6 hPa | 0 mm | - | - | - |
| 1777411837 | 12.78° C | 97% | 1016.7 hPa | 0 mm | - | - | - |
| 1777411477 | 12.22° C | 97% | 1016.7 hPa | 0 mm | - | - | - |
| 1777411118 | 12.22° C | 97% | 1016.7 hPa | 0 mm | - | - | - |
| 1777410757 | 12.78° C | 97% | 1016.8 hPa | 0 mm | - | - | - |
| 1777410397 | 12.78° C | 97% | 1016.8 hPa | 0 mm | - | - | - |
| 1777410037 | 13.33° C | 96% | 1016.9 hPa | 0 mm | - | - | - |
| 1777409676 | 12.78° C | 97% | 1016.9 hPa | 0 mm | - | - | - |
| 1777409317 | 13.33° C | 97% | 1017 hPa | 0 mm | - | - | - |
| 1777406797 | 13.33° C | 97% | 1017.2 hPa | 1.02 mm | - | - | - |
* Rain latest 24 hours (hover to see other rain measurements)
** Current wind speed in m/s (hover to see current wind gust speed)